sat.trackr.live / text

‹ back to catalog

TEVEL2-4

NORAD 63213 · 2025-052D

PAYLOAD ACTIVE UNKNOWN

§ Identity

Operator
Country
ISRA
Launch date
2025-03-15
Launch site
AFWTR
Launch vehicle
Mass (kg)
RCS (m²)

Purposes: comms

External: N2YO · Heavens-Above · Gunter

§ Orbital elements

Epoch: 2026-05-24T23:05:56.246784Z

Period
93.89 min
Inclination
97.3932°
Eccentricity
0.0003126
Mean motion
15.33670943 rev/d
Perigee alt
462.7 km
Apogee alt
467.0 km
Semi-major
6,843.0 km
B*
5.0285e-4
RAAN
41.3275°
Arg perigee
147.1092°
Mean anomaly
213.0346°
Rev number
6,655

§ Raw data

TEVEL2-41 63213U 25052D   26144.96245656  .00016310  00000+0  50285-3 0  99922 63213  97.3932  41.3275 0003126 147.1092 213.0346 15.33670943 66550

JSON: /api/v1/satellites/63213 · /tle

For live sub-satellite position, see the globe view (requires WebGL).

§ Visibility from observer

Set your observer location to see the next 7 days of passes ≥ 10°. The values pass through the URL so the page stays shareable.

No JS? Fill the form by hand. The geolocation button needs JavaScript.

§ Radio — SatNOGS DB

ModeDescriptionDownlinkUplink
BPSK Mode U - BPSK9k6 G3RUH - Beacon 436.400 MHz
FM Mode V/U - FM Transponder 436.400 MHz 145.970 MHz

2 transmitters · refreshed weekly from db.satnogs.org